Location: Dumpton Point
(51.3500°N, 1.4433°E)
Time: 10:31:59
(UTC+00:00)

A-11 Canister half - Pass Details

Date: 10 December 2023
Orbit: 1526 x 1682 km, 47.3° (Epoch: 01 March)

Event Time Altitude Azimuth Distance (km) Brightness Sun altitude
Rises 16:15:11 0° 199° (SSW) 4,895 12.5 -4.6°
Reaches altitude 10° 16:18:56 10° 188° (S) 3,923 11.7 -5.1°
Maximum altitude 16:26:53 28° 135° (SE) 2,796 10.2 -6.2°
Drops below altitude 10° 16:34:51 10° 83° (E) 3,940 10.6 -7.2°
Enters shadow 16:36:08 - 78° (ENE) 4,258 10.7 -7.4°
